Location: Cheyres
(46.8153°N, 6.7877°E)
Time: 06:01:29
(UTC+00:00)

Cosmos 1328 Rocket - Pass Details

Date: 22 September 2021
Orbit: 601 x 627 km, 82.5° (Epoch: 15 October)

Event Time Altitude Azimuth Distance (km) Brightness Sun altitude
Exits shadow 02:18:36 14° 121° (ESE) 1,724 6.0 -29.7°
Maximum altitude 02:20:44 19° 86° (E) 1,460 6.0 -29.4°
Drops below altitude 10° 02:23:48 10° 41° (NE) 1,963 7.0 -29.0°
Sets 02:26:31 0° 24° (NNE) 2,869 7.9 -28.6°
